STARLINK-30141, 57620

Orbit data source: Space-Track

STARLINK-30141, 57620 is a payload satellite owned by SpaceX/Seattle (US) in LEO that was launched on Fri, 11 Aug 2023 UTC via an FALCON 9 launch vehicle from the Air Force Eastern Test Range (AFETR). Payload-class satellites include a variety of spacecraft equipped with specific instruments for various scientific and technological missions. These include communications satellites like Starlink; space stations such as the ISS; scientific satellites like the Hubble; Earth observation satellites from companies like Planet Labs, Umbra, and HawkEye 360; GPS; miniature CubeSats for education and research; and military/defense satellites.

Loading next visibility...
Identifier
57620, 2023-119U
Orbit
LEO
Country
Flag of USUS
Related business
Manufacturer
SpaceX/Seattle
Mission
Operational Commercial Communications
Bus & Motor
STARLINK V2M, Unknown motor
Mass
730 kg wet, ~700 kg dry
Launch date (UTC)
2023-08-11 (3 years ago)
Launch vehicle
FALCON 9
Launch site
Air Force Eastern Test Range (AFETR)
Object type
Payload
Rocket body
Debris
Shape & HBR
Box + 2 Pan, 17.7 m
Radar Cross Section
33.884 m², Large (>1 m²)

Expand to show TLE details & history
Last TLE update: 17 hours ago

TLE from 17 hours ago
0 STARLINK-30141
1 57620U 23119U   26094.67468712 -.00003302  00000-0 -11345-3 0  9995
2 57620  43.0033 294.5591 0001144 262.3833  97.6888 15.26749953147062
Epoch: 2026-04-04T16:11Z
TLE epoch observation values (Epoch: 2026-04-04T16:11:32.967Z)
Latitude
-0.00004°
Longitude
-141.31937°
Altitude
485.417 km
Speed
7.624 km/s
True Right ascension
19h 38m 14s
True Declination
0° 00' 00"
Sunlit
Object was in daylight at epoch
Visualization orbit readout
Latitude
Unknown
Longitude
Unknown
Altitude
Unknown
Speed
Unknown
Apparent Right ascension
Unknown
Apparent Declination
Unknown
Sunlit
N/A
Visualization observer readout
Local Sidereal Time
15:26:34
Azimuth
Unknown
Elevation
Unknown
Doppler factor
Unknown
Orbital elements
Apogee altitude
488.265 km
Perigee altitude
486.694 km
Semi-major axis
6,865.617 km
Eccentricity
0.00011
Inclination
43.0033°
RAAN
294.5591°
Arg. of periapsis
262.3833°
True anomaly
97.70179°
Mean anomaly
97.6888°
Eccentric anomaly
97.6953°
Mean motion
3.81526 °/min
Orbital period
94.36 mins
BSTAR
-0.00011345
Loading maneuver chart data...
Computing Atmospheric mass density...
Loading historical data...
Loading historical data...
Loading historical data...
Loading historical data...
Loading historical data...
Loading historical data...
Loading historical data...

Documentation

Showing up to 5 results
|